owner,sensor,date,latitude,longitude,vertical_datum,wind_speed,wind_to_direction,wind_speed_of_gust,qcFlag 
TABS,ioos:station:wmo:42043:1,2006-05-01T00:00:00Z,28.9818,-94.9186,4.0,4.593440976,122.8255049,5.73,'11111222,11111222,11111222' 
TABS,ioos:station:wmo:42043:1,2006-05-01T00:30:00Z,28.9818,-94.9186,4.0,4.532824726,124.847386,6.18,'11111222,11111222,11111222' 
TABS,ioos:station:wmo:42043:1,2006-05-01T01:00:00Z,28.9818,-94.9186,4.0,4.262546187,117.5272612,5.4,'11111222,11111222,11111222' 
TABS,ioos:station:wmo:42043:1,2006-05-01T01:30:00Z,28.9818,-94.9186,4.0,4.543698934,116.6781965,5.73,'11111222,11111222,11111222' 
TABS,ioos:station:wmo:42043:1,2006-05-01T02:00:00Z,28.9818,-94.9186,4.0,5.173045525,125.718271,6.67,'11111222,11111222,11111222' 
TABS,ioos:station:wmo:42043:1,2006-05-01T02:30:00Z,28.9818,-94.9186,4.0,5.539323063,130.5343064,7.06,'11111222,11111222,11111222' 
TABS,ioos:station:wmo:42043:1,2006-05-01T03:00:00Z,28.9818,-94.9186,4.0,5.861953599,134.7929741,7.36,'11111222,11111222,11111222' 
TABS,ioos:station:wmo:42043:1,2006-05-01T03:30:00Z,28.9818,-94.9186,4.0,6.170291727,138.4824392,8.24,'11111222,11111222,11111222' 
TABS,ioos:station:wmo:42043:1,2006-05-01T04:00:00Z,28.9818,-94.9186,4.0,6.413836605,138.8563995,8.93,'11111222,11111222,11111222' 
TABS,ioos:station:wmo:42043:1,2006-05-01T04:30:00Z,28.9818,-94.9186,4.0,5.958137293,137.1767749,7.48,'11111222,11111222,11111222' 
TABS,ioos:station:wmo:42043:1,2006-05-01T05:00:00Z,28.9818,-94.9186,4.0,5.71308148,139.8993967,7.39,'11111222,11111222,11111222' 
TABS,ioos:station:wmo:42043:1,2006-05-01T05:30:00Z,28.9818,-94.9186,4.0,5.519438377,144.4384811,7.46,'11111222,11111222,11111222' 
TABS,ioos:station:wmo:42043:1,2006-05-01T06:00:00Z,28.9818,-94.9186,4.0,5.118368881,137.7718002,6.48,'11111222,11111222,11111222' 
TABS,ioos:station:wmo:42043:1,2006-05-01T06:30:00Z,28.9818,-94.9186,4.0,4.540176208,134.1079323,5.94,'11111222,11111222,11111222' 
TABS,ioos:station:wmo:42043:1,2006-05-01T07:00:00Z,28.9818,-94.9186,4.0,5.28932888,135.4598966,7.21,'11111222,11111222,11111222' 
TABS,ioos:station:wmo:42043:1,2006-05-01T07:30:00Z,28.9818,-94.9186,4.0,5.368994319,136.5851664,7.1,'11111222,11111222,11111222' 
TABS,ioos:station:wmo:42043:1,2006-05-01T08:00:00Z,28.9818,-94.9186,4.0,5.396007784,135.9764249,6.95,'11111222,11111222,11111222' 
TABS,ioos:station:wmo:42043:1,2006-05-01T08:30:00Z,28.9818,-94.9186,4.0,5.947512085,140.6634485,7.75,'11111222,11111222,11111222' 
TABS,ioos:station:wmo:42043:1,2006-05-01T09:00:00Z,28.9818,-94.9186,4.0,5.788099861,142.7938355,7.69,'11111222,11111222,11111222' 
TABS,ioos:station:wmo:42043:1,2006-05-01T09:30:00Z,28.9818,-94.9186,4.0,6.120629053,140.9019022,8.14,'11111222,11111222,11111222' 
TABS,ioos:station:wmo:42043:1,2006-05-01T10:00:00Z,28.9818,-94.9186,4.0,6.421791027,133.8646477,8.21,'11111222,11111222,11111222' 
TABS,ioos:station:wmo:42043:1,2006-05-01T10:30:00Z,28.9818,-94.9186,4.0,6.243788914,134.805654,7.89,'11111222,11111222,11111222' 
TABS,ioos:station:wmo:42043:1,2006-05-01T11:00:00Z,28.9818,-94.9186,4.0,6.795917892,134.2252918,8.66,'11111222,11111222,11111222' 
TABS,ioos:station:wmo:42043:1,2006-05-01T11:30:00Z,28.9818,-94.9186,4.0,6.495690879,132.8792243,8.37,'11111222,11111222,11111222' 
TABS,ioos:station:wmo:42043:1,2006-05-01T12:00:00Z,28.9818,-94.9186,4.0,6.714499237,136.9918802,8.26,'11111222,11111222,11111222' 
TABS,ioos:station:wmo:42043:1,2006-05-01T12:30:00Z,28.9818,-94.9186,4.0,7.155312712,132.5648768,9.19,'11111222,11111222,11111222' 
TABS,ioos:station:wmo:42043:1,2006-05-01T13:00:00Z,28.9818,-94.9186,4.0,6.602491954,132.7293311,8.41,'11111222,11111222,11111222' 
TABS,ioos:station:wmo:42043:1,2006-05-01T13:30:00Z,28.9818,-94.9186,4.0,6.505420817,132.3214069,8.27,'11111222,11111222,11111222' 
TABS,ioos:station:wmo:42043:1,2006-05-01T14:00:00Z,28.9818,-94.9186,4.0,6.147723156,133.2207013,8.25,'11111222,11111222,11111222' 
TABS,ioos:station:wmo:42043:1,2006-05-01T14:30:00Z,28.9818,-94.9186,4.0,5.466305882,134.3332555,7.42,'11111222,11111222,11111222' 
TABS,ioos:station:wmo:42043:1,2006-05-01T15:00:00Z,28.9818,-94.9186,4.0,5.34724228,136.36424,6.91,'11111222,11111222,11111222' 
TABS,ioos:station:wmo:42043:1,2006-05-01T15:30:00Z,28.9818,-94.9186,4.0,5.527431592,137.4198192,7.02,'11111222,11111222,11111222' 
TABS,ioos:station:wmo:42043:1,2006-05-01T16:00:00Z,28.9818,-94.9186,4.0,5.179285665,132.9660796,6.84,'11111222,11111222,11111222' 
TABS,ioos:station:wmo:42043:1,2006-05-01T16:30:00Z,28.9818,-94.9186,4.0,5.338052079,128.4589846,7.05,'11111222,11111222,11111222' 
TABS,ioos:station:wmo:42043:1,2006-05-01T17:00:00Z,28.9818,-94.9186,4.0,5.719589146,131.1014372,7.0,'11111222,11111222,11111222' 
TABS,ioos:station:wmo:42043:1,2006-05-01T17:30:00Z,28.9818,-94.9186,4.0,5.594300671,126.276198,7.09,'11111222,11111222,11111222' 
TABS,ioos:station:wmo:42043:1,2006-05-01T18:00:00Z,28.9818,-94.9186,4.0,5.085666131,129.575102,6.62,'11111222,11111222,11111222' 
TABS,ioos:station:wmo:42043:1,2006-05-01T18:30:00Z,28.9818,-94.9186,4.0,5.027534187,134.9197311,6.44,'11111222,11111222,11111222' 
TABS,ioos:station:wmo:42043:1,2006-05-01T19:00:00Z,28.9818,-94.9186,4.0,5.119472629,134.8420408,6.43,'11111222,11111222,11111222' 
TABS,ioos:station:wmo:42043:1,2006-05-01T19:30:00Z,28.9818,-94.9186,4.0,4.878247636,137.9083351,6.17,'11111222,11111222,11111222' 
TABS,ioos:station:wmo:42043:1,2006-05-01T20:00:00Z,28.9818,-94.9186,4.0,5.032544088,143.9729213,6.16,'11111222,11111222,11111222' 
TABS,ioos:station:wmo:42043:1,2006-05-01T20:30:00Z,28.9818,-94.9186,4.0,4.6904584,138.6305214,5.93,'11111222,11111222,11111222' 
TABS,ioos:station:wmo:42043:1,2006-05-01T21:00:00Z,28.9818,-94.9186,4.0,4.498110715,130.3114836,5.8,'11111222,11111222,11111222' 
TABS,ioos:station:wmo:42043:1,2006-05-01T21:30:00Z,28.9818,-94.9186,4.0,4.532604108,125.9347732,5.88,'11111222,11111222,11111222' 
TABS,ioos:station:wmo:42043:1,2006-05-01T22:00:00Z,28.9818,-94.9186,4.0,4.536309072,120.4658946,5.63,'11111222,11111222,11111222' 
TABS,ioos:station:wmo:42043:1,2006-05-01T22:30:00Z,28.9818,-94.9186,4.0,4.709702751,117.4359321,5.85,'11111222,11111222,11111222' 
TABS,ioos:station:wmo:42043:1,2006-05-01T23:00:00Z,28.9818,-94.9186,4.0,5.116688382,115.7140513,7.13,'11111222,11111222,11111222' 
TABS,ioos:station:wmo:42043:1,2006-05-01T23:30:00Z,28.9818,-94.9186,4.0,5.111721823,116.8661718,6.45,'11111222,11111222,11111222' 
TABS,ioos:station:wmo:42043:1,2006-05-02T00:00:00Z,28.9818,-94.9186,4.0,4.865757906,116.8813754,6.13,'11111222,11111222,11111222' 
TABS,ioos:station:wmo:42043:1,2006-05-02T00:30:00Z,28.9818,-94.9186,4.0,5.299528281,116.3236576,6.6,'11111222,11111222,11111222' 
TABS,ioos:station:wmo:42043:1,2006-05-02T01:00:00Z,28.9818,-94.9186,4.0,5.74533724,119.510213,7.11,'11111222,11111222,11111222' 
TABS,ioos:station:wmo:42043:1,2006-05-02T01:30:00Z,28.9818,-94.9186,4.0,5.657782251,121.1898824,7.16,'11111222,11111222,11111222' 
TABS,ioos:station:wmo:42043:1,2006-05-02T02:00:00Z,28.9818,-94.9186,4.0,5.880017007,128.3709999,7.3,'11111222,11111222,11111222' 
TABS,ioos:station:wmo:42043:1,2006-05-02T02:30:00Z,28.9818,-94.9186,4.0,6.054039973,127.0784416,7.98,'11111222,11111222,11111222' 
TABS,ioos:station:wmo:42043:1,2006-05-02T03:00:00Z,28.9818,-94.9186,4.0,6.637002335,130.7233468,8.0,'11111222,11111222,11111222' 
TABS,ioos:station:wmo:42043:1,2006-05-02T03:30:00Z,28.9818,-94.9186,4.0,7.041114969,132.7557057,8.35,'11111222,11111222,11111222' 
TABS,ioos:station:wmo:42043:1,2006-05-02T04:00:00Z,28.9818,-94.9186,4.0,7.609533494,134.0419277,9.31,'11111222,11111222,11111222' 
TABS,ioos:station:wmo:42043:1,2006-05-02T04:30:00Z,28.9818,-94.9186,4.0,7.297355685,134.8892778,9.12,'11111222,11111222,11111222' 
TABS,ioos:station:wmo:42043:1,2006-05-02T05:00:00Z,28.9818,-94.9186,4.0,7.422614095,138.2770238,9.0,'11111222,11111222,11111222' 
TABS,ioos:station:wmo:42043:1,2006-05-02T05:30:00Z,28.9818,-94.9186,4.0,7.035716026,135.0578992,8.6,'11111222,11111222,11111222' 
TABS,ioos:station:wmo:42043:1,2006-05-02T06:00:00Z,28.9818,-94.9186,4.0,6.735725648,139.2144844,8.42,'11111222,11111222,11111222' 
TABS,ioos:station:wmo:42043:1,2006-05-02T06:30:00Z,28.9818,-94.9186,4.0,6.306417366,140.9857693,8.03,'11111222,11111222,11111222' 
TABS,ioos:station:wmo:42043:1,2006-05-02T07:00:00Z,28.9818,-94.9186,4.0,6.554242901,145.6313377,8.59,'11111222,11111222,11111222' 
TABS,ioos:station:wmo:42043:1,2006-05-02T07:30:00Z,28.9818,-94.9186,4.0,6.530926427,149.548081,8.35,'11111222,11111222,11111222' 
TABS,ioos:station:wmo:42043:1,2006-05-02T08:00:00Z,28.9818,-94.9186,4.0,6.091633607,148.9720042,7.67,'11111222,11111222,11111222' 
TABS,ioos:station:wmo:42043:1,2006-05-02T08:30:00Z,28.9818,-94.9186,4.0,5.902677359,147.1717454,7.91,'11111222,11111222,11111222' 
TABS,ioos:station:wmo:42043:1,2006-05-02T09:00:00Z,28.9818,-94.9186,4.0,5.730069808,146.1715588,7.65,'11111222,11111222,11111222' 
TABS,ioos:station:wmo:42043:1,2006-05-02T09:30:00Z,28.9818,-94.9186,4.0,6.057664566,144.4736109,7.94,'11111222,11111222,11111222' 
TABS,ioos:station:wmo:42043:1,2006-05-02T10:00:00Z,28.9818,-94.9186,4.0,6.308573531,150.6722099,8.2,'11111222,11111222,11111222' 
TABS,ioos:station:wmo:42043:1,2006-05-02T10:30:00Z,28.9818,-94.9186,4.0,5.920692527,155.5563128,7.98,'11111222,11111222,11111222' 
TABS,ioos:station:wmo:42043:1,2006-05-02T11:00:00Z,28.9818,-94.9186,4.0,5.923926063,158.7197071,7.62,'11111222,11111222,11111222' 
TABS,ioos:station:wmo:42043:1,2006-05-02T11:30:00Z,28.9818,-94.9186,4.0,5.665906812,156.6025013,7.24,'11111222,11111222,11111222' 
TABS,ioos:station:wmo:42043:1,2006-05-02T12:00:00Z,28.9818,-94.9186,4.0,5.67965668,153.2096492,7.35,'11111222,11111222,11111222' 
TABS,ioos:station:wmo:42043:1,2006-05-02T12:30:00Z,28.9818,-94.9186,4.0,5.622001423,155.8515182,7.26,'11111222,11111222,11111222' 
TABS,ioos:station:wmo:42043:1,2006-05-02T13:00:00Z,28.9818,-94.9186,4.0,5.263734416,153.2405046,7.07,'11111222,11111222,11111222' 
TABS,ioos:station:wmo:42043:1,2006-05-02T13:30:00Z,28.9818,-94.9186,4.0,5.038303286,150.382346,6.31,'11111222,11111222,11111222' 
TABS,ioos:station:wmo:42043:1,2006-05-02T14:00:00Z,28.9818,-94.9186,4.0,4.826095731,146.8370634,6.2,'11111222,11111222,11111222' 
TABS,ioos:station:wmo:42043:1,2006-05-02T14:30:00Z,28.9818,-94.9186,4.0,3.889884317,149.743844,4.91,'11111222,11111222,11111222' 
TABS,ioos:station:wmo:42043:1,2006-05-02T15:00:00Z,28.9818,-94.9186,4.0,3.680230971,150.7188519,4.66,'11111222,11111222,11111222' 
TABS,ioos:station:wmo:42043:1,2006-05-02T15:30:00Z,28.9818,-94.9186,4.0,3.691287038,150.1013785,4.56,'11111222,11111222,11111222' 
TABS,ioos:station:wmo:42043:1,2006-05-02T16:00:00Z,28.9818,-94.9186,4.0,4.02889563,150.890423,5.11,'11111222,11111222,11111222' 
TABS,ioos:station:wmo:42043:1,2006-05-02T16:30:00Z,28.9818,-94.9186,4.0,4.034872984,150.4491429,5.22,'11111222,11111222,11111222' 
TABS,ioos:station:wmo:42043:1,2006-05-02T17:00:00Z,28.9818,-94.9186,4.0,3.673499694,149.0365263,4.62,'11111222,11111222,11111222' 
TABS,ioos:station:wmo:42043:1,2006-05-02T17:30:00Z,28.9818,-94.9186,4.0,4.033769949,150.7663242,5.58,'11111222,11111222,11111222' 
TABS,ioos:station:wmo:42043:1,2006-05-02T18:00:00Z,28.9818,-94.9186,4.0,3.763641853,146.2679994,4.65,'11111222,11111222,11111222' 
TABS,ioos:station:wmo:42043:1,2006-05-02T18:30:00Z,28.9818,-94.9186,4.0,3.766497046,145.9305065,4.72,'11111222,11111222,11111222' 
TABS,ioos:station:wmo:42043:1,2006-05-02T19:00:00Z,28.9818,-94.9186,4.0,4.053109917,136.4998592,5.16,'11111222,11111222,11111222' 
TABS,ioos:station:wmo:42043:1,2006-05-02T19:30:00Z,28.9818,-94.9186,4.0,4.652279011,138.0497126,5.93,'11111222,11111222,11111222' 
TABS,ioos:station:wmo:42043:1,2006-05-02T20:00:00Z,28.9818,-94.9186,4.0,4.87954916,135.8306292,5.94,'11111222,11111222,11111222' 
TABS,ioos:station:wmo:42043:1,2006-05-02T20:30:00Z,28.9818,-94.9186,4.0,4.665672513,132.1335808,6.13,'11111222,11111222,11111222' 
TABS,ioos:station:wmo:42043:1,2006-05-02T21:00:00Z,28.9818,-94.9186,4.0,4.928792956,138.1254235,6.48,'11111222,11111222,11111222' 
TABS,ioos:station:wmo:42043:1,2006-05-02T21:30:00Z,28.9818,-94.9186,4.0,5.764833042,144.1044504,7.27,'11111222,11111222,11111222' 
TABS,ioos:station:wmo:42043:1,2006-05-02T22:00:00Z,28.9818,-94.9186,4.0,6.123218108,152.4727116,7.94,'11111222,11111222,11111222' 
TABS,ioos:station:wmo:42043:1,2006-05-02T22:30:00Z,28.9818,-94.9186,4.0,6.113607773,153.8962591,7.75,'11111222,11111222,11111222' 
TABS,ioos:station:wmo:42043:1,2006-05-02T23:00:00Z,28.9818,-94.9186,4.0,5.69565624,148.5707183,7.53,'11111222,11111222,11111222' 
TABS,ioos:station:wmo:42043:1,2006-05-02T23:30:00Z,28.9818,-94.9186,4.0,5.538637016,142.2614093,7.54,'11111222,11111222,11111222' 
TABS,ioos:station:wmo:42043:1,2006-05-03T00:00:00Z,28.9818,-94.9186,4.0,5.344314736,143.7522211,7.01,'11111222,11111222,11111222' 
TABS,ioos:station:wmo:42043:1,2006-05-03T00:30:00Z,28.9818,-94.9186,4.0,5.602231698,139.3435455,7.24,'11111222,11111222,11111222' 
TABS,ioos:station:wmo:42043:1,2006-05-03T01:00:00Z,28.9818,-94.9186,4.0,6.72542192,135.9039576,8.34,'11111222,11111222,11111222' 
TABS,ioos:station:wmo:42043:1,2006-05-03T01:30:00Z,28.9818,-94.9186,4.0,6.70525913,137.9622853,8.57,'11111222,11111222,11111222' 
TABS,ioos:station:wmo:42043:1,2006-05-03T02:00:00Z,28.9818,-94.9186,4.0,7.469310544,133.5899124,9.12,'11111222,11111222,11111222' 
TABS,ioos:station:wmo:42043:1,2006-05-03T02:30:00Z,28.9818,-94.9186,4.0,7.768500499,131.0336098,9.62,'11111222,11111222,11111222' 
TABS,ioos:station:wmo:42043:1,2006-05-03T03:00:00Z,28.9818,-94.9186,4.0,7.588708718,133.8791088,9.53,'11111222,11111222,11111222' 
TABS,ioos:station:wmo:42043:1,2006-05-03T03:30:00Z,28.9818,-94.9186,4.0,6.790493355,141.5776857,9.01,'11111222,11111222,11111222' 
TABS,ioos:station:wmo:42043:1,2006-05-03T04:00:00Z,28.9818,-94.9186,4.0,6.776082939,144.5510804,9.1,'11111222,11111222,11111222' 
TABS,ioos:station:wmo:42043:1,2006-05-03T04:30:00Z,28.9818,-94.9186,4.0,7.179749299,144.9821216,9.45,'11111222,11111222,11111222' 
TABS,ioos:station:wmo:42043:1,2006-05-03T05:00:00Z,28.9818,-94.9186,4.0,7.818912968,151.1734322,9.52,'11111222,11111222,11111222' 
TABS,ioos:station:wmo:42043:1,2006-05-03T05:30:00Z,28.9818,-94.9186,4.0,7.527084429,159.0611195,10.55,'11111222,11111222,11111222' 
TABS,ioos:station:wmo:42043:1,2006-05-03T06:00:00Z,28.9818,-94.9186,4.0,8.441782987,162.7029107,10.57,'11111222,11111222,11111222' 
TABS,ioos:station:wmo:42043:1,2006-05-03T06:30:00Z,28.9818,-94.9186,4.0,6.909775684,170.251639,9.12,'11111222,11111222,11111222' 
TABS,ioos:station:wmo:42043:1,2006-05-03T07:00:00Z,28.9818,-94.9186,4.0,6.165168286,167.5419932,8.66,'11111222,11111222,11111222' 
TABS,ioos:station:wmo:42043:1,2006-05-03T07:30:00Z,28.9818,-94.9186,4.0,6.358427479,172.2269459,8.06,'11111222,11111222,11111222' 
TABS,ioos:station:wmo:42043:1,2006-05-03T08:00:00Z,28.9818,-94.9186,4.0,5.950033613,179.8076208,7.71,'11111222,11111222,11111222' 
TABS,ioos:station:wmo:42043:1,2006-05-03T08:30:00Z,28.9818,-94.9186,4.0,5.485736049,188.174606,7.11,'11111222,11111222,11111222' 
TABS,ioos:station:wmo:42043:1,2006-05-03T09:00:00Z,28.9818,-94.9186,4.0,5.894845206,186.2330521,7.84,'11111222,11111222,11111222' 
TABS,ioos:station:wmo:42043:1,2006-05-03T09:30:00Z,28.9818,-94.9186,4.0,5.521775077,181.4530494,7.27,'11111222,11111222,11111222' 
TABS,ioos:station:wmo:42043:1,2006-05-03T10:00:00Z,28.9818,-94.9186,4.0,5.497353909,172.4744581,7.72,'11111222,11111222,11111222' 
TABS,ioos:station:wmo:42043:1,2006-05-03T10:30:00Z,28.9818,-94.9186,4.0,5.327250698,164.7639933,6.99,'11111222,11111222,11111222' 
TABS,ioos:station:wmo:42043:1,2006-05-03T11:00:00Z,28.9818,-94.9186,4.0,3.430014577,179.8331682,4.34,'11111222,11111222,11111222' 
TABS,ioos:station:wmo:42043:1,2006-05-03T11:30:00Z,28.9818,-94.9186,4.0,3.2453043,194.6359052,4.21,'11111222,11111222,11111222' 
TABS,ioos:station:wmo:42043:1,2006-05-03T12:00:00Z,28.9818,-94.9186,4.0,3.60998615,158.5525243,4.66,'11111222,11111222,11111222' 
TABS,ioos:station:wmo:42043:1,2006-05-03T12:30:00Z,28.9818,-94.9186,4.0,3.709353043,161.6141501,4.84,'11111222,11111222,11111222' 
TABS,ioos:station:wmo:42043:1,2006-05-03T13:00:00Z,28.9818,-94.9186,4.0,3.44200523,143.0305229,4.3,'11111222,11111222,11111222' 
TABS,ioos:station:wmo:42043:1,2006-05-03T13:30:00Z,28.9818,-94.9186,4.0,3.594509702,146.0007575,4.62,'11111222,11111222,11111222' 
TABS,ioos:station:wmo:42043:1,2006-05-03T14:00:00Z,28.9818,-94.9186,4.0,4.785394446,153.9706791,6.16,'11111222,11111222,11111222' 
TABS,ioos:station:wmo:42043:1,2006-05-03T14:30:00Z,28.9818,-94.9186,4.0,4.436676684,148.9257888,6.06,'11111222,11111222,11111222' 
TABS,ioos:station:wmo:42043:1,2006-05-03T15:00:00Z,28.9818,-94.9186,4.0,4.594257285,144.926538,5.82,'11111222,11111222,11111222' 
TABS,ioos:station:wmo:42043:1,2006-05-03T15:30:00Z,28.9818,-94.9186,4.0,4.080600446,139.8711332,4.98,'11111222,11111222,11111222' 
TABS,ioos:station:wmo:42043:1,2006-05-03T16:00:00Z,28.9818,-94.9186,4.0,4.723653247,138.1753808,5.85,'11111222,11111222,11111222' 
TABS,ioos:station:wmo:42043:1,2006-05-03T16:30:00Z,28.9818,-94.9186,4.0,5.628641044,134.7124003,6.95,'11111222,11111222,11111222' 
TABS,ioos:station:wmo:42043:1,2006-05-03T17:00:00Z,28.9818,-94.9186,4.0,5.490719443,137.0667878,6.61,'11111222,11111222,11111222' 
TABS,ioos:station:wmo:42043:1,2006-05-03T17:30:00Z,28.9818,-94.9186,4.0,4.971005934,134.7558123,6.4,'11111222,11111222,11111222' 
TABS,ioos:station:wmo:42043:1,2006-05-03T18:00:00Z,28.9818,-94.9186,4.0,4.899887754,144.7208862,6.53,'11111222,11111222,11111222' 
TABS,ioos:station:wmo:42043:1,2006-05-03T18:30:00Z,28.9818,-94.9186,4.0,4.932382791,158.8459891,5.93,'11111222,11111222,11111222' 
TABS,ioos:station:wmo:42043:1,2006-05-03T19:00:00Z,28.9818,-94.9186,4.0,4.958195236,155.4511131,6.03,'11111222,11111222,11111222' 
TABS,ioos:station:wmo:42043:1,2006-05-03T19:30:00Z,28.9818,-94.9186,4.0,4.875448697,152.3840431,6.08,'11111222,11111222,11111222' 
TABS,ioos:station:wmo:42043:1,2006-05-03T20:00:00Z,28.9818,-94.9186,4.0,4.858075751,144.805371,5.88,'11111222,11111222,11111222' 
TABS,ioos:station:wmo:42043:1,2006-05-03T20:30:00Z,28.9818,-94.9186,4.0,4.319351803,158.5437055,5.28,'11111222,11111222,11111222' 
TABS,ioos:station:wmo:42043:1,2006-05-03T21:00:00Z,28.9818,-94.9186,4.0,5.231787457,162.8814182,6.74,'11111222,11111222,11111222' 
TABS,ioos:station:wmo:42043:1,2006-05-03T21:30:00Z,28.9818,-94.9186,4.0,5.709684755,160.1371773,7.46,'11111222,11111222,11111222' 
TABS,ioos:station:wmo:42043:1,2006-05-03T22:00:00Z,28.9818,-94.9186,4.0,5.579838707,160.2013804,6.93,'11111222,11111222,11111222' 
TABS,ioos:station:wmo:42043:1,2006-05-03T22:30:00Z,28.9818,-94.9186,4.0,4.78172563,154.6141983,5.96,'11111222,11111222,11111222' 
TABS,ioos:station:wmo:42043:1,2006-05-03T23:00:00Z,28.9818,-94.9186,4.0,5.069516742,148.8814641,6.69,'11111222,11111222,11111222' 
TABS,ioos:station:wmo:42043:1,2006-05-03T23:30:00Z,28.9818,-94.9186,4.0,6.128833494,137.3807502,7.69,'11111222,11111222,11111222' 
TABS,ioos:station:wmo:42043:1,2006-05-04T00:00:00Z,28.9818,-94.9186,4.0,6.075689261,138.0691721,7.7,'11111222,11111222,11111222' 
TABS,ioos:station:wmo:42043:1,2006-05-04T00:30:00Z,28.9818,-94.9186,4.0,6.506919394,133.7549543,7.95,'11111222,11111222,11111222' 
TABS,ioos:station:wmo:42043:1,2006-05-04T01:00:00Z,28.9818,-94.9186,4.0,6.760073964,134.6407243,8.09,'11111222,11111222,11111222' 
TABS,ioos:station:wmo:42043:1,2006-05-04T01:30:00Z,28.9818,-94.9186,4.0,6.744961082,137.4637719,8.28,'11111222,11111222,11111222' 
TABS,ioos:station:wmo:42043:1,2006-05-04T02:00:00Z,28.9818,-94.9186,4.0,6.882223478,139.7150592,8.53,'11111222,11111222,11111222' 
TABS,ioos:station:wmo:42043:1,2006-05-04T02:30:00Z,28.9818,-94.9186,4.0,6.889593602,138.0007333,8.45,'11111222,11111222,11111222' 
TABS,ioos:station:wmo:42043:1,2006-05-04T03:00:00Z,28.9818,-94.9186,4.0,6.593640876,147.3224921,8.01,'11111222,11111222,11111222' 
TABS,ioos:station:wmo:42043:1,2006-05-04T03:30:00Z,28.9818,-94.9186,4.0,6.629781294,140.0176897,8.05,'11111222,11111222,11111222' 
TABS,ioos:station:wmo:42043:1,2006-05-04T04:00:00Z,28.9818,-94.9186,4.0,5.990409001,142.4608644,7.64,'11111222,11111222,11111222' 
TABS,ioos:station:wmo:42043:1,2006-05-04T04:30:00Z,28.9818,-94.9186,4.0,6.273730947,139.0721201,8.14,'11111222,11111222,11111222' 
TABS,ioos:station:wmo:42043:1,2006-05-04T05:00:00Z,28.9818,-94.9186,4.0,6.550801478,136.7322697,7.93,'11111222,11111222,11111222' 
TABS,ioos:station:wmo:42043:1,2006-05-04T05:30:00Z,28.9818,-94.9186,4.0,6.300936438,137.830605,8.24,'11111222,11111222,11111222' 
TABS,ioos:station:wmo:42043:1,2006-05-04T06:00:00Z,28.9818,-94.9186,4.0,5.553062218,150.434567,7.12,'11111222,11111222,11111222' 
TABS,ioos:station:wmo:42043:1,2006-05-04T06:30:00Z,28.9818,-94.9186,4.0,6.292288932,155.5939925,7.91,'11111222,11111222,11111222' 
TABS,ioos:station:wmo:42043:1,2006-05-04T07:00:00Z,28.9818,-94.9186,4.0,4.995447928,153.7429838,6.78,'11111222,11111222,11111222' 
TABS,ioos:station:wmo:42043:1,2006-05-04T07:30:00Z,28.9818,-94.9186,4.0,4.968641665,156.8925234,6.6,'11111222,11111222,11111222' 
TABS,ioos:station:wmo:42043:1,2006-05-04T08:00:00Z,28.9818,-94.9186,4.0,5.214518194,166.0172981,6.86,'11111222,11111222,11111222' 
TABS,ioos:station:wmo:42043:1,2006-05-04T08:30:00Z,28.9818,-94.9186,4.0,5.526119796,177.3034956,7.11,'11111222,11111222,11111222' 
TABS,ioos:station:wmo:42043:1,2006-05-04T09:00:00Z,28.9818,-94.9186,4.0,5.732547427,173.8918197,7.29,'11111222,11111222,11111222' 
TABS,ioos:station:wmo:42043:1,2006-05-04T09:30:00Z,28.9818,-94.9186,4.0,5.426978902,170.9891845,6.68,'11111222,11111222,11111222' 
TABS,ioos:station:wmo:42043:1,2006-05-04T10:00:00Z,28.9818,-94.9186,4.0,5.101313556,166.9719504,6.49,'11111222,11111222,11111222' 
TABS,ioos:station:wmo:42043:1,2006-05-04T10:30:00Z,28.9818,-94.9186,4.0,4.973228328,159.8891929,6.41,'11111222,11111222,11111222' 
TABS,ioos:station:wmo:42043:1,2006-05-04T11:00:00Z,28.9818,-94.9186,4.0,5.25404606,159.1506539,6.48,'11111222,11111222,11111222' 
TABS,ioos:station:wmo:42043:1,2006-05-04T11:30:00Z,28.9818,-94.9186,4.0,5.84405681,161.1312551,7.86,'11111222,11111222,11111222' 
TABS,ioos:station:wmo:42043:1,2006-05-04T12:00:00Z,28.9818,-94.9186,4.0,5.544555888,166.4401994,7.4,'11111222,11111222,11111222' 
TABS,ioos:station:wmo:42043:1,2006-05-04T12:30:00Z,28.9818,-94.9186,4.0,5.950537791,167.0850108,7.56,'11111222,11111222,11111222' 
TABS,ioos:station:wmo:42043:1,2006-05-04T13:00:00Z,28.9818,-94.9186,4.0,5.062114183,176.035565,6.48,'11111222,11111222,11111222' 
TABS,ioos:station:wmo:42043:1,2006-05-04T13:30:00Z,28.9818,-94.9186,4.0,5.121972276,176.0819708,7.03,'11111222,11111222,11111222' 
TABS,ioos:station:wmo:42043:1,2006-05-04T14:00:00Z,28.9818,-94.9186,4.0,4.535956349,172.7812065,5.76,'11111222,11111222,11111222' 
TABS,ioos:station:wmo:42043:1,2006-05-04T14:30:00Z,28.9818,-94.9186,4.0,4.408287649,161.894114,5.85,'11111222,11111222,11111222' 
TABS,ioos:station:wmo:42043:1,2006-05-04T15:00:00Z,28.9818,-94.9186,4.0,4.608882728,156.6057924,5.97,'11111222,11111222,11111222' 
TABS,ioos:station:wmo:42043:1,2006-05-04T15:30:00Z,28.9818,-94.9186,4.0,4.566683698,152.4813174,6.01,'11111222,11111222,11111222' 
TABS,ioos:station:wmo:42043:1,2006-05-04T16:00:00Z,28.9818,-94.9186,4.0,4.096498505,153.6228702,5.29,'11111222,11111222,11111222' 
TABS,ioos:station:wmo:42043:1,2006-05-04T16:30:00Z,28.9818,-94.9186,4.0,3.680774375,157.4761904,4.62,'11111222,11111222,11111222' 
TABS,ioos:station:wmo:42043:1,2006-05-04T17:00:00Z,28.9818,-94.9186,4.0,4.334616477,157.3397271,5.68,'11111222,11111222,11111222' 
TABS,ioos:station:wmo:42043:1,2006-05-04T17:30:00Z,28.9818,-94.9186,4.0,5.035176263,151.1446167,6.45,'11111222,11111222,11111222' 
TABS,ioos:station:wmo:42043:1,2006-05-04T18:00:00Z,28.9818,-94.9186,4.0,5.487604213,163.8110421,6.7,'11111222,11111222,11111222' 
TABS,ioos:station:wmo:42043:1,2006-05-04T18:30:00Z,28.9818,-94.9186,4.0,5.220957767,156.2829149,6.68,'11111222,11111222,11111222' 